| time (UTC) | temp F | wind direction | speed MPH | gust MPH | rain 1hr in | rain 24hr in | rain mn in | humidity % | barometer mb |
| 20260506072726 | 48 | 284 | 8.0 | 13.0 | 0.00 | 0.00 | 0.00 | 45 | 1013.1 |
| 20260506070725 | 47 | 274 | 4.0 | 10.0 | 0.00 | 0.00 | 0.00 | 50 | 1012.9 |
| 20260506060725 | 44 | 255 | 5.0 | 9.0 | 0.00 | 0.00 | 0.00 | 56 | 1012.6 |
| 20260506050724 | 41 | 288 | 6.0 | 9.0 | 0.00 | 0.00 | 0.00 | 73 | 1012.1 |
| 20260506044725 | 40 | 276 | 6.0 | 8.0 | 0.00 | 0.00 | 0.00 | 76 | 1012.0 |
| 20260506042724 | 39 | 270 | 6.0 | 7.0 | 0.00 | 0.00 | 0.00 | 80 | 1011.8 |
| 20260506040724 | 37 | 269 | 5.0 | 6.0 | 0.00 | 0.00 | 0.00 | 86 | 1011.6 |
| 20260506034725 | 36 | 268 | 6.0 | 7.0 | 0.00 | 0.00 | 0.00 | 86 | 1011.4 |
| 20260506032724 | 34 | 280 | 6.0 | 7.0 | 0.00 | 0.00 | 0.00 | 87 | 1011.2 |
| 20260506030724 | 32 | 282 | 5.0 | 7.0 | 0.00 | 0.00 | 0.00 | 89 | 1011.1 |
| 20260506024724 | 32 | 283 | 6.0 | 7.0 | 0.00 | 0.00 | 0.00 | 93 | 1010.9 |
| 20260506022724 | 32 | 262 | 6.0 | 6.0 | 0.00 | 0.00 | 0.00 | 92 | 1010.8 |
| 20260506020724 | 31 | 256 | 6.0 | 7.0 | 0.00 | 0.00 | 0.00 | 92 | 1010.8 |
| 20260506014724 | 31 | 256 | 6.0 | 6.0 | 0.00 | 0.00 | 0.00 | 91 | 1010.7 |
| 20260506012724 | 31 | 257 | 4.0 | 6.0 | 0.00 | 0.00 | 0.00 | 92 | 1010.4 |
| 20260506010724 | 31 | 256 | 4.0 | 4.0 | 0.00 | 0.00 | 0.00 | 90 | 1010.3 |
| 20260506004723 | 32 | 266 | 4.0 | 5.0 | 0.00 | 0.00 | 0.00 | 89 | 1010.0 |
| 20260506002724 | 33 | 243 | 4.0 | 5.0 | 0.00 | 0.00 | 0.00 | 86 | 1009.9 |
| 20260506000724 | 33 | 259 | 5.0 | 5.0 | 0.00 | 0.00 | 0.00 | 86 | 1009.8 |
| 20260505234724 | 32 | 262 | 5.0 | 6.0 | 0.00 | 0.00 | 0.00 | 87 | 1009.6 |
| 20260505232724 | 32 | 261 | 5.0 | 5.0 | 0.00 | 0.00 | 0.00 | 86 | 1009.5 |
| 20260505230724 | 32 | 250 | 5.0 | 6.0 | 0.00 | 0.00 | 0.00 | 86 | 1009.5 |
| 20260505224723 | 32 | 261 | 4.0 | 5.0 | 0.00 | 0.00 | 0.00 | 87 | 1009.5 |
| 20260505222723 | 32 | 274 | 5.0 | 6.0 | 0.00 | 0.00 | 0.00 | 85 | 1009.5 |
| 20260505220724 | 33 | 249 | 4.0 | 5.0 | 0.00 | 0.00 | 0.00 | 81 | 1009.3 |
| 20260505214724 | 33 | 252 | 4.0 | 4.0 | 0.00 | 0.00 | 0.00 | 81 | 1009.3 |
| 20260505212723 | 33 | 249 | 3.0 | 4.0 | 0.00 | 0.00 | 0.00 | 80 | 1009.3 |
| 20260505210723 | 34 | 252 | 3.0 | 4.0 | 0.00 | 0.00 | 0.00 | 76 | 1009.2 |
| 20260505204723 | 35 | 263 | 4.0 | 5.0 | 0.00 | 0.00 | 0.00 | 75 | 1009.1 |
| 20260505202724 | 35 | 266 | 5.0 | 5.0 | 0.00 | 0.00 | 0.00 | 73 | 1009.0 |
| 20260505200723 | 35 | 282 | 5.0 | 6.0 | 0.00 | 0.00 | 0.00 | 72 | 1008.8 |
| 20260505194722 | 37 | 272 | 5.0 | 6.0 | 0.00 | 0.00 | 0.00 | 68 | 1008.6 |
| 20260505192723 | 37 | 278 | 6.0 | 7.0 | 0.00 | 0.00 | 0.00 | 68 | 1008.5 |
| 20260505190722 | 38 | 283 | 5.0 | 7.0 | 0.00 | 0.00 | 0.00 | 64 | 1008.5 |
| 20260505184722 | 38 | 289 | 6.0 | 8.0 | 0.00 | 0.00 | 0.00 | 62 | 1008.3 |
| 20260505182722 | 40 | 288 | 8.0 | 12.0 | 0.00 | 0.00 | 0.00 | 59 | 1008.1 |
| 20260505180722 | 41 | 282 | 8.0 | 12.0 | 0.00 | 0.00 | 0.00 | 60 | 1007.9 |
| 20260505174722 | 42 | 289 | 7.0 | 11.0 | 0.00 | 0.00 | 0.00 | 59 | 1007.7 |
| 20260505172721 | 43 | 282 | 10.0 | 15.0 | 0.00 | 0.00 | 0.00 | 56 | 1007.5 |
| 20260505170722 | 43 | 287 | 13.0 | 17.0 | 0.00 | 0.00 | 0.00 | 53 | 1007.5 |
| 20260505164722 | 44 | 288 | 13.0 | 18.0 | 0.00 | 0.00 | 0.00 | 52 | 1007.3 |
| 20260505162722 | 44 | 289 | 11.0 | 18.0 | 0.00 | 0.00 | 0.00 | 50 | 1007.2 |
| 20260505160722 | 43 | 302 | 10.0 | 16.0 | 0.00 | 0.00 | 0.00 | 54 | 1007.0 |
| 20260505152721 | 45 | 288 | 11.0 | 16.0 | 0.00 | 0.00 | 0.00 | 48 | 1006.9 |
| 20260505150722 | 43 | 289 | 12.0 | 18.0 | 0.00 | 0.00 | 0.00 | 50 | 1006.9 |
| 20260505124721 | 48 | 281 | 17.0 | 28.0 | 0.00 | 0.00 | 0.00 | 48 | 1006.0 |
| 20260505122721 | 47 | 273 | 19.0 | 28.0 | 0.00 | 0.00 | 0.00 | 44 | 1005.8 |
| 20260505120721 | 47 | 279 | 17.0 | 26.0 | 0.00 | 0.00 | 0.00 | 49 | 1005.8 |
| 20260505114721 | 46 | 283 | 15.0 | 25.0 | 0.00 | 0.00 | 0.00 | 54 | 1005.6 |
| 20260505112721 | 45 | 290 | 16.0 | 23.0 | 0.00 | 0.00 | 0.00 | 53 | 1005.5 |
| 20260505110721 | 48 | 286 | 14.0 | 21.0 | 0.00 | 0.00 | 0.00 | 47 | 1005.3 |
| 20260505100721 | 46 | 291 | 14.0 | 22.0 | 0.00 | 0.00 | 0.00 | 51 | 1004.7 |
| 20260505094720 | 46 | 294 | 12.0 | 18.0 | 0.00 | 0.00 | 0.00 | 52 | 1004.6 |
| 20260505092720 | 47 | 292 | 12.0 | 20.0 | 0.00 | 0.00 | 0.00 | 53 | 1004.3 |
| 20260505090720 | 45 | 309 | 11.0 | 15.0 | 0.00 | 0.00 | 0.00 | 57 | 1004.3 |
| 20260505084721 | 47 | 302 | 11.0 | 19.0 | 0.00 | 0.00 | 0.00 | 57 | 1004.0 |
| 20260505082720 | 44 | 312 | 11.0 | 17.0 | 0.00 | 0.00 | 0.00 | 61 | 1003.8 |
| 20260505080720 | 44 | 305 | 9.0 | 15.0 | 0.00 | 0.00 | 0.00 | 68 | 1003.5 |